Dewpoint
55 55 55 53 53 53 53 53 52 53 52 52 52 53 54 52 52 47 41 34 41 52 54 23 25 13 16 20 18 17 18 20 22 22 24 28 30 29 30 29 35 36 38 49 53
55 55 55 55 54 53 53 53 52 52 52 53 53 52 52 52 46 38 43 55 57 55 26 19 24 13 15 18 17 16 15 15 20 22 22 23 26 26 26 28 29 33 34 40 48
55 55 55 54 54 53 53 53 53 53 53 53 53 52 52 50 41 32 61 55 58 50 21 19 22 14 16 15 14 14 14 13 13 16 20 22 24 25 25 26 27 31 34 33 40
55 55 54 54 54 54 53 53 53 52 53 53 53 52 52 45 35 45 60 60 59 30 15 19 23 14 14 13 12 11 15 15 12 9 16 20 26 25 25 26 26 27 28 30 32
54 54 54 54 54 54 54 53 52 53 52 53 53 52 48 41 35 50 58 55 40 29 18 24 20 14 12 12 12 11 12 13 12 11 12 15 21 25 24 26 25 25 26 27 34
54 54 54 53 54 54 55 54 52 52 52 52 53 52 45 30 36 44 34 33 25 20 23 25 17 15 13 13 13 15 13 12 13 12 13 14 14 16 19 17 19 22 22 23 25
54 54 54 54 53 54 54 54 54 52 52 53 53 49 41 31 30 34 30 26 24 28 24 19 14 13 14 13 13 13 14 15 15 14 14 14 14 14 14 14 17 19 22 23 26
53 53 54 54 53 53 54 54 53 53 53 53 53 48 37 27 25 30 27 29 30 25 22 19 17 16 14 15 13 12 14 12 13 13 14 13 13 14 14 16 16 17 19 21 25
52 52 52 53 53 53 53 53 54 55 54 53 50 45 32 33 23 33 30 23 22 24 25 22 18 19 16 13 12 13 9 11 9 9 11 11 11 12 12 18 20 22 22 22 24
52 51 51 52 52 53 52 52 54 54 52 49 46 41 37 26 23 30 30 23 21 23 27 24 24 22 16 13 10 11 9 8 8 9 10 10 11 12 13 15 20 21 23 25 25
52 51 51 51 52 52 50 45 49 49 48 40 36 27 18 21 25 26 29 26 26 27 24 23 18 18 17 17 14 12 10 11 11 8 11 14 14 13 15 16 18 21 25 29 29
52 51 51 51 51 51 49 41 36 35 33 42 40 34 27 26 25 27 27 24 27 25 22 22 19 17 14 13 13 12 11 12 13 13 12 13 13 15 16 18 20 21 26 28 30
52 51 51 51 51 49 45 39 36 34 34 33 34 36 30 26 27 27 26 26 24 24 22 17 17 16 13 13 12 13 14 14 13 11 12 13 13 16 16 18 19 21 26 28 30
52 50 50 50 49 46 43 41 38 36 32 31 31 30 31 28 25 27 25 26 24 22 21 19 17 14 12 10 11 12 12 10 10 11 9 14 10 19 19 19 20 21 25 26 28
52 50 50 50 47 42 37 36 37 41 32 36 29 33 30 26 27 27 28 26 24 22 18 17 15 13 13 12 12 10 9 10 12 13 14 12 10 13 17 15 19 23 24 27 28
52 49 49 49 48 44 42 38 40 34 31 29 26 24 27 25 25 25 24 24 22 20 20 18 16 15 13 12 11 12 11 13 15 15 14 16 14 13 13 19 20 22 23 25 24
50 49 47 46 45 38 36 37 36 32 30 29 24 23 24 23 24 23 24 24 20 18 19 19 18 16 16 15 15 12 16 13 14 13 13 15 13 19 22 20 20 22 22 26 31
48 47 49 45 43 40 41 38 34 27 24 27 25 25 22 23 25 23 23 23 23 21 24 25 23 21 20 18 17 18 20 14 15 15 14 19 20 22 30 26 25 23 31 33 33
46 47 48 43 41 42 41 36 34 27 25 24 23 21 21 27 28 26 24 23 24 26 25 24 23 24 26 27 21 20 20 22 23 22 20 22 23 26 28 28 26 25 28 33 38
43 46 41 40 44 44 38 35 27 29 29 28 25 24 22 30 33 33 34 34 30 30 34 30 28 29 29 29 28 23 22 24 24 23 22 21 22 22 33 31 32 31 28 34 38
45 43 42 43 44 40 35 34 33 31 30 30 29 28 27 25 28 28 33 35 34 32 34 34 34 32 32 30 30 26 23 25 28 28 32 28 26 35 35 38 38 35 33 36 36
46 39 40 42 40 41 34 36 35 28 31 31 31 30 29 30 29 28 29 36 37 34 30 33 34 30 28 29 30 33 32 31 35 32 32 32 30 38 37 37 41 39 37 38 35
41 37 40 42 38 44 37 28 30 30 32 31 30 31 32 32 32 33 32 37 34 35 37 38 36 30 27 27 29 28 33 34 36 38 34 34 31 38 41 40 40 40 38 37 34
42 34 36 35 35 35 33 29 28 32 30 32 32 32 32 32 32 32 31 34 36 37 42 40 35 32 29 28 32 34 36 36 39 38 36 32 30 32 41 41 40 42 41 36 34
42 37 38 33 36 37 34 32 28 28 31 31 31 33 33 32 31 30 33 34 37 40 37 38 34 32 30 29 28 27 28 31 31 33 34 33 30 32 34 41 40 41 36 33 32
37 36 37 35 36 35 34 31 30 31 31 30 30 32 34 33 32 32 32 34 35 38 35 41 33 32 30 29 28 26 25 25 25 25 26 26 26 29 31 29 33 34 34 33 32
40 40 39 37 34 32 31 32 30 31 30 31 32 32 32 32 36 37 37 36 36 38 36 37 37 34 29 29 31 28 27 24 24 24 24 24 27 29 31 36 36 34 33 31 31
Lifted_Index
11 11 11 12 12 12 12 12 12 12 12 12 11 11 10 9 9 8 7 7 6 7 8 9 9 9 9 8 7 7 6 6 5 4 2 1 0 1 1 2 1 1 1 -0 -1
11 11 11 11 12 12 12 12 12 12 12 11 11 10 10 9 8 6 5 5 5 7 8 8 8 8 8 7 7 6 6 6 5 4 2 1 0 1 1 2 2 2 2 1 -0
11 11 11 11 11 11 12 12 12 12 11 11 11 10 10 8 5 3 2 3 4 7 8 8 7 7 7 6 6 6 6 5 5 3 2 1 1 1 2 3 3 2 2 2 1
11 11 11 11 11 11 11 11 11 11 11 10 10 10 9 7 3 1 1 2 4 7 8 7 6 6 6 5 5 5 5 5 4 3 2 2 2 2 3 4 4 3 3 3 4
11 11 11 11 11 11 11 11 11 11 11 10 10 10 9 6 3 1 1 3 5 7 7 6 6 6 5 5 4 4 4 4 4 3 2 3 3 3 4 5 5 5 5 5 6
11 11 11 11 11 11 11 11 11 11 11 10 10 9 8 6 4 3 3 5 6 7 6 6 5 5 5 4 3 3 3 4 4 3 4 4 5 5 6 6 6 6 6 6 6
11 11 11 11 11 11 11 10 11 11 11 10 9 8 7 6 5 4 5 5 6 5 5 5 5 5 5 4 3 3 3 4 4 4 4 5 6 6 6 6 7 7 7 7 6
12 12 12 12 11 11 10 10 10 10 10 9 9 8 7 6 6 5 5 5 5 5 5 5 5 5 5 4 4 4 4 4 4 4 4 5 5 5 5 5 6 7 7 6 6
12 12 12 12 11 11 10 10 9 9 9 8 7 7 6 6 6 5 5 5 5 5 5 5 5 5 5 4 4 4 4 3 3 2 3 4 4 4 4 4 5 6 7 6 6
12 12 12 11 11 10 10 9 8 7 6 6 6 5 5 6 5 5 4 5 5 5 5 4 4 4 4 4 3 3 2 2 1 1 1 3 4 4 3 4 5 6 6 6 6
11 11 11 11 11 10 9 8 6 4 4 4 4 4 5 5 5 4 4 5 5 4 4 4 4 4 4 3 3 2 1 0 0 0 0 2 3 4 4 4 5 5 6 5 5
11 11 11 11 10 10 8 7 5 4 4 3 3 3 4 5 4 4 4 4 4 3 3 4 4 3 3 2 2 2 1 1 1 0 0 1 3 4 4 4 4 5 5 5 5
10 11 11 10 10 9 7 7 6 5 4 3 2 3 4 4 4 4 4 4 4 3 3 3 2 2 2 2 2 2 3 2 2 1 1 1 3 4 4 4 4 5 5 5 5
10 10 10 9 8 7 6 6 6 5 4 3 2 3 3 4 4 3 3 3 3 3 3 2 2 1 2 2 2 3 3 2 2 1 1 2 3 3 3 3 3 4 5 5 5
10 10 9 8 7 6 6 6 5 4 2 2 2 3 3 4 4 3 3 3 3 3 3 2 2 1 2 2 3 3 2 2 1 2 2 2 2 2 2 1 1 2 3 4 4
9 9 8 7 6 6 6 5 4 2 1 1 2 3 3 3 3 3 3 3 3 3 3 3 2 2 2 2 2 3 2 1 1 2 3 3 3 2 1 0 0 1 2 3 4
8 7 7 6 5 5 5 4 2 1 -0 0 1 2 2 2 2 2 3 3 3 3 3 3 2 2 2 2 2 2 2 1 1 1 2 2 2 2 1 0 0 0 1 2 3
7 6 5 5 5 5 4 3 1 0 0 1 1 0 0 0 0 1 1 2 2 2 2 2 1 1 2 2 2 2 2 1 1 1 1 1 1 1 1 0 0 0 1 1 2
6 5 4 4 4 4 3 1 1 1 2 2 2 1 -0 -1 -0 -0 -0 -0 0 1 1 1 1 1 1 1 1 1 1 1 1 1 1 1 1 0 0 0 0 1 1 1 1
5 3 3 3 3 2 1 1 1 2 2 2 2 1 1 -0 -0 -1 -1 -1 -1 -0 0 0 0 0 0 0 0 1 1 1 1 0 0 0 0 0 -0 -0 0 1 1 1 1
3 2 2 2 2 1 1 0 1 2 2 2 2 2 1 1 0 -0 -0 -0 -0 0 0 0 0 0 0 0 -0 -0 0 0 0 0 -0 -0 -0 -0 -0 -0 0 1 1 1 2
2 2 2 2 1 0 0 0 1 2 2 2 2 2 2 2 1 0 0 0 1 1 1 0 0 0 0 0 -0 -0 -0 -1 -1 -0 -0 -0 -0 -0 -0 -0 0 0 1 1 2
2 2 1 1 1 1 1 1 1 2 2 2 2 2 2 2 2 1 1 1 1 1 1 0 0 0 0 0 0 -0 -0 -1 -1 -1 -0 -0 0 -0 -0 0 0 1 1 2 2
2 1 1 1 1 1 1 1 2 2 2 3 3 3 3 3 2 1 1 1 1 1 1 1 1 1 1 0 0 1 0 0 -0 -0 -0 0 0 -0 0 0 1 1 1 2 3
2 1 1 1 1 1 2 2 2 2 3 3 3 3 3 3 3 2 2 1 1 1 1 1 1 1 1 1 1 1 1 1 1 0 0 0 0 0 1 1 1 1 2 2 3
2 2 1 1 1 1 1 2 2 3 3 3 4 4 4 4 3 3 2 2 2 2 2 2 2 2 2 2 1 1 1 1 1 1 1 1 1 1 1 2 2 2 2 2 3
2 2 1 1 1 1 1 2 2 3 3 4 4 4 4 4 3 3 3 3 2 2 2 2 2 2 2 1 1 1 1 1 1 1 1 1 1 1 2 2 2 2 2 2 2